CW9809 Weather Reports


Display with metric or nautical units.
time (UTC)temp
F
wind
direction
speed
MPH
gust
MPH
rain 1hr
in
rain 24hr
in
rain mn
in
humidity
%
barometer
mb
20260504233018 61 292 0.0 7.0 0.00 0.00 0.00 54 1009.6
20260504231523 62 117 0.0 7.0 0.00 0.00 0.00 52 1009.4
20260504230028 63 146 0.0 9.0 0.00 0.00 0.00 51 1009.2
20260504224531 63 264 0.0 9.0 0.00 0.00 0.00 50 1009.2
20260504223044 64 219 1.0 10.0 0.00 0.00 0.00 49 1009.2
20260504221520 65 196 3.0 11.0 0.00 0.00 0.00 47 1009.2
20260504220026 66 178 2.0 9.0 0.00 0.00 0.00 46 1009.3
20260504214527 67 207 0.0 8.0 0.00 0.00 0.00 45 1009.3
20260504213042 70 194 0.0 11.0 0.00 0.00 0.00 37 1009.2
20260504211534 72 327 0.0 7.0 0.00 0.00 0.00 32 1009.2
20260504210022 71 203 0.0 15.0 0.00 0.00 0.00 32 1009.2
20260504204510 72 241 1.0 9.0 0.00 0.00 0.00 33 1009.3
20260504203017 71 194 1.0 15.0 0.00 0.00 0.00 32 1009.3
20260504201527 71 200 1.0 16.0 0.00 0.00 0.00 32 1009.4
20260504200023 71 227 1.0 13.0 0.00 0.00 0.00 32 1009.5
20260504194524 72 209 2.0 12.0 0.00 0.00 0.00 32 1009.6
20260504193028 71 199 3.0 12.0 0.00 0.00 0.00 33 1009.6
20260504191511 71 244 0.0 10.0 0.00 0.00 0.00 32 1009.6
20260504190018 71 227 1.0 10.0 0.00 0.00 0.00 34 1009.6
20260504184522 71 69 3.0 14.0 0.00 0.00 0.00 32 1009.8
20260504183026 70 103 3.0 13.0 0.00 0.00 0.00 34 1010.0
20260504181513 69 203 0.0 17.0 0.00 0.00 0.00 35 1010.0
20260504180017 69 191 3.0 13.0 0.00 0.00 0.00 33 1010.1
20260504174518 69 196 6.0 15.0 0.00 0.00 0.00 33 1010.4
20260504173024 68 95 2.0 14.0 0.00 0.00 0.00 35 1010.3
20260504171528 68 272 2.0 14.0 0.00 0.00 0.00 35 1010.6
20260504081523 44 233 0.0 0.0 0.00 0.00 0.00 64 1012.2
20260504050020 44 277 0.0 0.0 0.00 0.00 0.00 60 1012.0
20260504044533 45 277 0.0 0.0 0.00 0.00 0.00 60 1012.0
20260504043025 46 276 0.0 0.0 0.00 0.00 0.00 53 1012.0
20260504041527 46 277 0.0 0.0 0.00 0.00 0.00 53 1012.0
20260504040014 46 277 0.0 0.0 0.00 0.00 0.00 54 1012.0
20260504034518 46 277 0.0 0.0 0.00 0.00 0.00 53 1011.9
20260504033023 47 276 0.0 0.0 0.00 0.00 0.00 51 1011.9
20260504031528 48 276 0.0 0.0 0.00 0.00 0.00 50 1011.8
20260504030029 47 277 0.0 0.0 0.00 0.00 0.00 49 1011.9
20260504024515 47 277 0.0 0.0 0.00 0.00 0.00 48 1011.8
20260504023018 47 277 0.0 0.0 0.00 0.00 0.00 47 1011.8
20260504021521 48 276 0.0 0.0 0.00 0.00 0.00 46 1011.7
20260504020026 48 276 0.0 0.0 0.00 0.00 0.00 44 1011.7
20260504014528 49 321 0.0 0.0 0.00 0.00 0.00 43 1011.6
20260504013016 50 338 0.0 0.0 0.00 0.00 0.00 40 1011.4
20260504011518 50 338 0.0 0.0 0.00 0.00 0.00 41 1011.2
20260504010026 50 338 0.0 0.0 0.00 0.00 0.00 40 1011.0
20260504004528 50 337 0.0 0.0 0.00 0.00 0.00 41 1010.9
20260504003028 50 338 0.0 0.0 0.00 0.00 0.00 42 1010.6
20260504001519 51 338 0.0 0.0 0.00 0.00 0.00 41 1010.4
20260504000024 51 338 0.0 0.0 0.00 0.00 0.00 39 1010.3
20260503234527 52 317 0.0 3.0 0.00 0.00 0.00 37 1010.1